Wind_Speed
7 7 7 7 7 7 6 6 6 6 7 6 6 6 6 7 7 8 8 8 7 7 8 8 8 8 9 9 9 9 10 10 10 9 8 8 8 8 8 9 10 10 10
8 7 7 8 8 8 7 7 7 7 7 7 7 7 6 7 7 9 8 8 8 7 8 8 9 9 9 10 9 9 9 10 11 10 10 10 9 9 9 9 10 10 10
8 8 8 8 8 9 9 9 8 8 8 8 8 8 8 8 7 8 9 9 9 8 9 9 10 10 10 11 10 10 10 10 11 12 12 11 11 11 11 11 11 11 11
8 9 9 9 9 9 9 9 9 8 8 8 9 10 10 9 9 8 9 9 9 9 9 9 10 10 11 11 12 11 11 12 12 11 12 13 13 13 13 13 12 12 12
9 9 9 9 9 9 9 9 9 9 9 9 10 10 10 10 10 9 10 10 10 10 10 9 10 10 11 11 12 12 12 12 12 12 13 13 14 14 14 15 14 14 14
10 10 10 10 10 9 10 10 10 10 10 10 10 10 10 11 11 11 11 12 12 11 10 10 10 11 11 11 12 12 12 13 13 14 14 14 15 15 15 15 15 15 16
10 11 11 11 10 10 10 11 11 11 11 11 11 12 12 12 11 12 12 13 13 13 12 12 11 12 12 13 13 14 14 14 14 15 15 16 16 16 15 16 16 16 17
10 11 12 12 12 11 11 12 12 12 12 12 12 13 13 14 13 13 13 14 14 14 14 13 13 14 14 14 15 15 15 16 16 17 17 17 17 17 17 17 17 17 18
11 12 12 13 13 13 12 13 13 13 13 14 14 14 14 14 15 15 15 15 15 16 16 15 15 16 16 16 16 16 16 17 17 18 17 17 18 19 19 18 17 17 18
12 12 13 13 13 13 13 13 13 14 14 15 15 15 15 15 15 16 17 17 17 16 16 16 16 17 18 18 18 17 17 18 17 18 18 18 18 18 18 19 19 19 19
13 13 13 13 13 13 13 14 14 14 15 15 16 16 16 16 16 16 17 17 17 17 18 18 17 18 19 19 19 19 19 19 19 20 19 19 18 18 19 19 19 19 19
15 15 15 15 14 14 14 15 15 16 16 17 17 17 17 18 18 17 17 17 17 18 18 18 18 19 19 19 19 20 20 20 20 19 19 19 19 19 20 20 20 21 20
17 17 16 16 16 15 15 15 16 16 17 18 18 18 18 18 18 18 17 17 17 18 18 18 18 19 19 20 20 21 21 21 21 21 21 21 21 21 21 20 21 21 21
18 17 17 17 17 16 16 16 17 17 17 18 18 19 19 19 19 19 18 18 18 18 19 19 19 20 20 21 21 21 22 22 22 22 22 22 22 21 21 21 21 21 22
18 18 17 18 18 17 17 17 17 17 17 17 18 19 19 20 20 20 20 20 20 19 19 19 20 20 20 20 21 21 22 23 23 23 23 24 24 23 23 23 23 23 23
20 19 18 18 18 18 18 18 18 17 17 17 18 19 20 21 21 21 21 21 21 21 20 21 22 22 22 22 23 23 22 23 24 24 25 25 25 25 25 25 25 24 24
21 21 20 19 19 19 19 18 18 18 18 18 19 20 21 21 21 21 21 22 22 23 23 22 23 23 23 23 24 24 23 24 25 25 25 26 26 25 25 26 26 26 25
21 21 21 20 20 20 20 19 19 19 19 19 20 20 21 21 22 22 22 23 23 24 24 24 24 24 24 24 24 25 24 24 25 26 26 26 26 26 26 26 27 26 26
22 21 21 21 20 20 20 20 20 20 20 20 20 21 21 22 22 23 24 24 24 24 24 25 25 25 25 25 25 25 25 25 25 26 27 27 28 27 27 27 27 27 27
23 22 22 21 21 21 20 20 20 20 20 21 21 21 21 22 23 24 25 25 26 26 26 25 26 26 27 27 26 26 26 26 27 27 27 28 28 28 28 28 29 28 28
23 23 22 21 22 21 21 21 21 20 20 21 21 21 22 22 23 23 24 25 26 27 27 27 27 27 28 28 27 27 27 27 28 28 28 28 28 29 29 29 29 29 29
25 24 22 22 21 21 22 22 22 21 21 21 22 22 22 21 21 22 23 24 25 26 27 27 27 28 28 28 28 28 28 28 28 29 29 29 29 30 30 31 31 30 30
25 24 23 23 23 23 22 22 22 22 22 22 22 22 22 22 22 22 23 23 24 24 25 26 27 27 28 28 28 28 28 29 29 29 30 29 30 30 31 32 31 31 30
25 24 24 24 23 24 24 23 22 23 23 23 22 22 22 22 22 22 23 24 24 24 25 26 27 27 27 28 28 28 28 28 29 30 30 30 30 31 31 31 30 30 30
24 24 24 24 24 24 23 22 22 22 22 22 23 23 23 23 23 23 24 24 24 24 25 26 26 26 27 27 28 28 28 28 28 28 29 29 29 30 30 29 29 29 29
24 23 23 24 24 24 23 23 23 23 23 23 24 24 25 25 25 25 25 24 24 24 24 25 25 26 27 27 27 28 28 28 27 28 28 28 28 28 28 28 28 29 29
Wind_Direction
289 285 282 285 281 278 277 273 266 263 257 251 250 248 248 250 243 238 239 234 231 231 231 231 227 221 219 220 226 231 237 233 232 235 238 243 248 252 254 254 254 253 254
294 287 287 289 281 277 275 272 264 262 259 257 254 248 249 250 246 241 238 232 228 231 237 233 228 228 227 227 230 233 236 236 237 238 242 246 250 254 257 257 257 256 256
300 293 289 288 285 280 277 274 273 263 263 260 260 255 254 254 251 242 236 231 231 235 240 238 230 230 232 233 234 235 237 240 244 244 245 249 254 256 258 258 258 256 256
306 299 292 290 289 286 281 277 273 271 268 261 258 256 256 254 255 248 238 233 231 233 238 240 235 233 233 237 238 239 242 245 246 248 248 250 254 255 257 258 260 259 257
306 306 302 294 290 285 280 275 270 269 266 264 257 255 253 253 253 247 242 238 235 237 239 239 236 236 237 240 241 243 245 249 249 250 251 252 253 255 258 258 260 260 261
301 302 301 295 291 287 283 277 273 271 269 270 262 256 255 255 250 248 247 243 241 243 245 241 237 238 240 243 245 245 247 252 254 255 256 256 256 258 259 260 261 261 260
302 300 296 293 291 289 285 279 275 271 269 269 264 257 256 255 250 241 241 242 244 246 248 244 244 244 243 246 248 249 250 253 255 256 258 258 259 261 263 263 262 260 260
301 301 297 291 288 289 286 283 279 274 270 267 265 260 260 256 248 244 245 244 245 249 250 248 249 249 250 250 251 252 252 254 255 258 261 260 260 262 264 264 262 261 263
296 297 296 291 289 287 285 285 283 278 275 270 266 262 261 259 252 249 246 248 251 253 252 252 255 255 256 254 253 253 254 256 257 259 261 263 262 262 264 263 263 263 265
293 296 294 291 289 288 288 287 285 280 277 272 269 268 265 265 261 254 251 252 254 255 252 254 255 257 258 256 256 255 255 257 259 260 262 263 265 264 262 261 262 263 265
291 292 292 291 291 291 290 287 283 280 278 275 272 269 266 263 262 259 255 255 257 256 255 255 257 260 261 258 257 255 257 260 262 263 264 264 264 264 263 261 261 263 265
288 289 289 289 290 290 289 287 284 281 278 276 273 268 267 264 261 261 258 257 258 259 259 258 260 260 260 259 258 257 260 262 263 264 265 266 267 267 266 264 263 263 266
287 287 286 286 287 288 289 287 285 282 279 276 273 270 270 268 265 264 262 259 260 261 260 260 262 261 259 259 260 261 262 263 263 263 264 265 267 268 267 266 265 265 266
283 283 282 283 283 283 287 285 283 280 277 275 272 270 270 269 268 265 264 263 261 261 261 261 264 262 261 260 260 263 263 263 262 262 264 265 266 268 268 265 265 265 267
280 279 279 280 281 282 283 283 283 280 277 273 271 269 269 268 268 267 265 263 261 261 262 264 267 267 265 263 264 266 266 263 262 261 262 264 265 266 267 266 265 267 266
277 277 278 278 278 279 280 283 282 280 276 273 271 269 268 267 268 267 265 265 263 262 262 264 264 265 269 268 265 266 267 264 263 262 262 264 266 266 265 267 264 265 265
275 275 276 276 275 275 277 280 280 279 278 275 273 270 268 267 268 267 267 267 266 265 264 265 266 268 269 270 269 268 269 266 264 265 264 264 266 266 265 267 266 265 265
276 273 273 274 275 273 274 276 278 277 277 275 273 271 269 267 265 265 267 267 267 268 267 266 268 269 269 268 269 269 269 269 267 266 266 265 265 265 265 266 268 267 266
272 271 273 274 274 274 274 275 277 277 276 274 274 272 270 267 266 266 267 267 268 269 269 269 269 269 269 267 268 269 269 268 266 266 266 266 265 264 265 265 267 266 265
268 270 273 274 275 274 275 277 277 277 276 274 274 274 272 271 269 268 268 268 268 268 269 269 269 269 268 268 268 268 268 268 267 268 267 266 265 264 264 265 266 265 266
268 268 269 272 274 275 275 277 277 277 277 276 275 276 275 274 272 270 269 269 269 268 267 268 268 269 269 268 269 269 268 269 270 271 270 267 266 266 266 266 266 266 266
268 268 269 271 275 277 278 279 276 277 277 277 276 277 278 278 276 275 274 272 270 268 268 268 267 268 268 268 269 270 270 270 271 271 271 269 269 268 267 268 268 267 266
270 272 269 272 274 277 279 279 278 276 275 276 276 277 278 277 279 280 278 275 273 270 269 268 268 267 267 268 268 269 270 271 271 272 271 270 270 269 268 268 267 266 266
270 270 270 272 274 274 275 274 277 278 274 275 277 278 278 278 280 281 281 280 277 275 273 272 271 269 268 268 269 271 272 272 272 271 272 271 271 271 269 267 265 264 265
269 270 269 271 273 274 272 273 276 277 276 276 276 276 278 280 282 281 281 279 278 277 275 274 273 271 271 271 272 273 274 274 273 271 271 271 271 270 267 266 264 264 265
271 270 271 273 276 276 274 275 275 275 275 275 275 276 278 279 280 281 279 278 278 278 277 276 274 273 273 273 273 274 273 273 272 271 271 272 272 270 267 266 265 266 266
Height
5875 5875 5875 5874 5874 5873 5873 5873 5873 5873 5873 5873 5874 5874 5874 5875 5875 5875 5875 5876 5876 5876 5877 5877 5878 5879 5880 5881 5881 5882 5883 5883 5884 5885 5885 5886 5886 5886 5886 5886 5886 5886 5886
5874 5873 5873 5872 5872 5872 5871 5871 5871 5871 5871 5871 5872 5872 5872 5872 5872 5873 5873 5874 5874 5875 5875 5875 5876 5877 5878 5879 5879 5880 5881 5881 5882 5883 5883 5884 5884 5884 5884 5884 5884 5884 5884
5872 5871 5871 5870 5870 5869 5869 5869 5869 5869 5869 5869 5870 5870 5870 5870 5870 5871 5871 5871 5872 5873 5873 5873 5874 5875 5876 5877 5877 5878 5879 5879 5880 5880 5881 5881 5882 5882 5882 5882 5882 5882 5882
5870 5869 5869 5868 5868 5867 5867 5866 5866 5866 5867 5867 5867 5867 5867 5868 5868 5868 5868 5869 5870 5871 5871 5871 5872 5873 5873 5874 5875 5876 5876 5877 5877 5878 5878 5879 5879 5879 5879 5880 5880 5879 5879
5868 5867 5867 5866 5865 5865 5864 5864 5864 5864 5864 5864 5864 5865 5865 5865 5866 5866 5866 5867 5867 5868 5869 5869 5870 5870 5871 5872 5872 5873 5873 5874 5874 5875 5875 5875 5876 5876 5876 5876 5876 5876 5876
5866 5865 5864 5864 5863 5862 5862 5861 5861 5861 5861 5861 5861 5862 5862 5862 5862 5863 5863 5864 5864 5865 5866 5866 5867 5868 5868 5869 5870 5870 5870 5871 5871 5871 5872 5872 5872 5873 5873 5873 5872 5873 5873
5864 5863 5862 5861 5860 5860 5859 5859 5858 5858 5858 5858 5858 5858 5859 5859 5859 5860 5860 5861 5862 5862 5863 5863 5864 5865 5865 5866 5866 5867 5867 5867 5868 5868 5868 5868 5868 5869 5869 5869 5869 5869 5869
5861 5860 5859 5858 5857 5857 5856 5855 5855 5855 5854 5854 5855 5855 5855 5856 5856 5856 5857 5858 5858 5859 5859 5860 5860 5861 5861 5862 5863 5863 5863 5863 5864 5864 5864 5864 5864 5864 5864 5864 5864 5864 5864
5858 5857 5856 5855 5854 5854 5853 5852 5851 5851 5851 5851 5851 5851 5852 5852 5852 5853 5853 5854 5854 5855 5856 5856 5856 5857 5857 5858 5858 5859 5859 5859 5860 5860 5859 5859 5859 5859 5860 5859 5859 5859 5859
5855 5854 5853 5852 5851 5850 5849 5848 5848 5848 5847 5847 5847 5847 5848 5848 5848 5849 5849 5850 5850 5851 5851 5852 5852 5853 5853 5853 5853 5854 5854 5854 5855 5855 5855 5854 5854 5854 5854 5854 5854 5854 5854
5852 5851 5850 5849 5848 5846 5845 5845 5844 5844 5843 5843 5842 5842 5843 5843 5843 5844 5845 5845 5845 5846 5847 5847 5848 5848 5848 5848 5849 5849 5849 5849 5850 5850 5850 5849 5849 5849 5849 5849 5849 5849 5848
5848 5847 5846 5845 5844 5843 5842 5841 5840 5839 5839 5838 5838 5838 5838 5838 5839 5839 5840 5840 5841 5841 5841 5842 5842 5843 5843 5843 5843 5843 5844 5844 5844 5844 5844 5844 5844 5844 5843 5843 5843 5843 5842
5843 5842 5841 5840 5839 5838 5838 5836 5836 5835 5834 5834 5834 5833 5834 5833 5834 5834 5835 5835 5836 5836 5836 5837 5837 5837 5837 5837 5838 5838 5838 5839 5839 5838 5838 5838 5838 5838 5838 5837 5837 5837 5837
5837 5837 5836 5835 5834 5833 5833 5831 5831 5830 5830 5829 5829 5829 5828 5828 5829 5829 5829 5830 5830 5831 5831 5831 5831 5832 5832 5832 5832 5832 5832 5832 5832 5832 5832 5832 5832 5832 5832 5831 5831 5831 5830
5831 5831 5831 5830 5829 5828 5827 5827 5826 5825 5824 5824 5823 5823 5823 5823 5823 5823 5823 5824 5825 5825 5826 5825 5825 5825 5826 5826 5826 5826 5825 5825 5826 5826 5825 5825 5826 5825 5825 5825 5824 5824 5824
5827 5826 5825 5825 5824 5823 5822 5821 5821 5820 5819 5819 5818 5818 5817 5817 5817 5818 5818 5818 5818 5819 5819 5820 5819 5819 5819 5819 5819 5819 5819 5819 5819 5819 5819 5818 5818 5818 5818 5818 5817 5817 5817
5821 5820 5819 5819 5818 5817 5817 5816 5816 5815 5814 5814 5813 5812 5811 5811 5811 5811 5811 5811 5812 5812 5813 5813 5813 5813 5813 5813 5812 5812 5812 5812 5811 5811 5811 5811 5811 5811 5811 5810 5810 5810 5810
5814 5813 5813 5813 5812 5812 5811 5811 5810 5809 5809 5808 5807 5806 5805 5805 5805 5805 5804 5804 5805 5805 5806 5806 5806 5805 5806 5806 5806 5805 5805 5804 5804 5804 5804 5804 5804 5803 5803 5803 5803 5802 5802
5808 5807 5807 5807 5806 5806 5805 5805 5804 5803 5802 5802 5801 5800 5799 5799 5798 5798 5798 5798 5798 5798 5798 5798 5799 5798 5798 5798 5798 5798 5798 5797 5797 5796 5796 5796 5796 5796 5796 5795 5795 5795 5795
5801 5801 5800 5800 5800 5799 5799 5798 5798 5797 5796 5795 5795 5794 5793 5792 5791 5791 5791 5790 5790 5790 5790 5790 5791 5790 5790 5791 5791 5791 5790 5790 5789 5789 5788 5788 5788 5788 5788 5787 5787 5787 5787
5793 5793 5793 5793 5793 5792 5792 5791 5791 5790 5790 5789 5788 5787 5787 5785 5784 5784 5783 5783 5783 5782 5782 5782 5782 5782 5782 5782 5783 5783 5782 5782 5781 5780 5780 5780 5779 5779 5779 5779 5778 5778 5778
5786 5786 5786 5786 5786 5786 5785 5785 5784 5784 5783 5782 5782 5781 5780 5779 5778 5777 5776 5775 5775 5774 5774 5774 5774 5774 5774 5774 5774 5774 5773 5773 5773 5773 5772 5771 5770 5770 5770 5769 5769 5768 5768
5778 5777 5778 5779 5779 5779 5778 5778 5778 5777 5776 5776 5775 5774 5774 5772 5771 5770 5769 5768 5767 5766 5766 5765 5765 5765 5765 5765 5765 5765 5764 5764 5764 5763 5763 5762 5761 5761 5760 5760 5759 5758 5758
5771 5770 5771 5772 5772 5771 5771 5771 5770 5769 5769 5769 5768 5768 5767 5766 5764 5763 5762 5761 5759 5758 5757 5757 5757 5757 5756 5756 5756 5756 5755 5755 5755 5754 5753 5753 5752 5751 5750 5750 5749 5749 5749
5764 5764 5764 5764 5764 5763 5763 5763 5762 5762 5762 5761 5761 5760 5760 5759 5758 5756 5755 5754 5752 5751 5750 5749 5748 5748 5748 5747 5747 5747 5746 5746 5745 5745 5744 5744 5743 5742 5741 5740 5740 5740 5740
5756 5756 5757 5757 5757 5756 5756 5756 5755 5755 5754 5754 5753 5753 5752 5751 5750 5749 5747 5746 5745 5744 5743 5742 5741 5740 5740 5739 5738 5738 5737 5736 5736 5736 5735 5734 5733 5732 5732 5732 5731 5731 5731